Estación de Morza Norte

Ultimos registro cada 15 minutos 87
Estación Fecha / Hora Temperatura Humedad Lluvia Velocidad Dirección Radiación Presion
87 Morza Norte 04-05-2026 21:45 10,6 66 0 0 133 0 1016,2
86 Morza Norte 04-05-2026 21:30 11 65 0 0 132 0 1016
85 Morza Norte 04-05-2026 21:15 11,5 65 0 0 132 0 1016,1
84 Morza Norte 04-05-2026 21:00 11,7 65 0 0 132 0 1016,1
83 Morza Norte 04-05-2026 20:45 11,9 65 0 0 131 0 1016
82 Morza Norte 04-05-2026 20:30 12,1 65 0 0 130 0 1016
81 Morza Norte 04-05-2026 20:15 12,3 65 0 0 129 0 1016
80 Morza Norte 04-05-2026 20:00 12,3 64 0 0 106 0 1015,8
79 Morza Norte 04-05-2026 19:45 12,3 64 0 0 106 0 1015,8
78 Morza Norte 04-05-2026 19:30 12,8 63 0 0 107 0 1015,8
77 Morza Norte 04-05-2026 19:15 12,9 63 0 0 85 0 1015,7
76 Morza Norte 04-05-2026 19:00 13 63 0 0 73 0 1015,6
75 Morza Norte 04-05-2026 18:45 13,7 60 0 0 63 0 1015,6
74 Morza Norte 04-05-2026 18:30 14,9 57 0 0 63 0 1015,5
73 Morza Norte 04-05-2026 18:15 16,3 53 0 0 63 0 1015,5
72 Morza Norte 04-05-2026 17:45 16,6 51 0 0 63 16 1015,6
71 Morza Norte 04-05-2026 17:30 16,4 99 0 0 63 33 1015,7
70 Morza Norte 04-05-2026 17:15 16,3 53 0 0 83 76 1016
69 Morza Norte 04-05-2026 17:00 16,4 55 0 0 83 62 1015,9
68 Morza Norte 04-05-2026 16:45 16,6 53 0 0 83 54 1015,9
67 Morza Norte 04-05-2026 16:30 16,7 52 0 0 83 63 1015,9
66 Morza Norte 04-05-2026 16:15 16,8 50 0 0 83 56 1016
65 Morza Norte 04-05-2026 16:00 17,2 50 0 0 83 51 1016,2
64 Morza Norte 04-05-2026 15:45 17,4 49 0 0 350 56 1016,6
63 Morza Norte 04-05-2026 15:30 17,8 47 0 0,4 350 81 1016,6
62 Morza Norte 04-05-2026 15:15 17,8 47 0 0 230 102 1017
61 Morza Norte 04-05-2026 15:00 18,2 46 0 0 11 158 1017
60 Morza Norte 04-05-2026 14:45 18 45 0 0 17 220 1017
59 Morza Norte 04-05-2026 14:30 17,9 47 0 0 23 185 1017,3
58 Morza Norte 04-05-2026 14:15 17,7 50 0 0 343 165 1017,5
57 Morza Norte 04-05-2026 14:00 17,3 51 0 0 289 200 1017,8
56 Morza Norte 04-05-2026 13:45 16,8 52 0 0 289 253 1017,9
55 Morza Norte 04-05-2026 13:30 15,8 56 0 0 283 281 1018,1
54 Morza Norte 04-05-2026 13:15 15,1 58 0 0 36 185 1018,1
53 Morza Norte 04-05-2026 13:00 14,5 57 0 0 99 185 1018,3
52 Morza Norte 04-05-2026 12:45 14,2 57 0 0 98 130 1018,6
51 Morza Norte 04-05-2026 12:30 14,1 57 0 0 98 100 1018,7
50 Morza Norte 04-05-2026 12:15 13,9 59 0 0 98 100 1018,8
49 Morza Norte 04-05-2026 12:00 13,7 58 0 0 98 97 1018,8
48 Morza Norte 04-05-2026 11:45 13,6 60 0 0 98 88 1018,7
47 Morza Norte 04-05-2026 11:30 13,3 59 0 0 98 86 1018,5
46 Morza Norte 04-05-2026 11:15 13,1 60 0 0 98 98 1018,7
45 Morza Norte 04-05-2026 11:00 12,8 60 0 0 98 97 1018,6
44 Morza Norte 04-05-2026 10:45 12,6 61 0 0 98 84 1018,5
43 Morza Norte 04-05-2026 10:30 12,3 99 0 0 98 100 1018,6
42 Morza Norte 04-05-2026 10:15 11,9 63 0 0 122 84 1018,7
41 Morza Norte 04-05-2026 10:00 11,6 63 0 0 169 72 1018,6
40 Morza Norte 04-05-2026 09:45 11,2 63 0 0 169 74 1018,4
39 Morza Norte 04-05-2026 09:30 10,8 99 0 0 169 77 1018,6
38 Morza Norte 04-05-2026 09:15 10,3 65 0 0 169 49 1018,2
37 Morza Norte 04-05-2026 09:00 10,1 65 0 0 169 47 1018
36 Morza Norte 04-05-2026 08:45 9,8 66 0 0 169 44 1017,8
35 Morza Norte 04-05-2026 08:30 9,5 99 0 0 169 39 1017,9
34 Morza Norte 04-05-2026 08:15 9,5 66 0 0 169 23 1017,9
33 Morza Norte 04-05-2026 08:00 9,3 66 0 0 169 18 1017,9
32 Morza Norte 04-05-2026 07:45 9,1 65 0 0 169 12 1017,8
31 Morza Norte 04-05-2026 07:30 9,1 99 0 0 169 0 1017,8
30 Morza Norte 04-05-2026 07:15 8,9 65 0 0 169 0 1017,7
29 Morza Norte 04-05-2026 07:00 8,8 65 0 0 169 0 1017,6
28 Morza Norte 04-05-2026 06:45 8,8 65 0 0 169 0 1017,7
27 Morza Norte 04-05-2026 06:30 9 99 0 0 169 0 1017,5
26 Morza Norte 04-05-2026 06:15 9,1 65 0 0 169 0 1017,4
25 Morza Norte 04-05-2026 06:00 9,1 65 0 0 169 0 1017,3
24 Morza Norte 04-05-2026 05:45 8,9 66 0 0 169 0 1017,3
23 Morza Norte 04-05-2026 05:30 8,8 99 0 0 169 0 1017,2
22 Morza Norte 04-05-2026 05:15 8,9 66 0 0 169 0 1017,3
21 Morza Norte 04-05-2026 05:00 8,9 66 0 0 169 0 1017,3
20 Morza Norte 04-05-2026 04:45 9,1 66 0 0 169 0 1017,1
19 Morza Norte 04-05-2026 04:30 9,2 66 0 0 169 0 1017,2
18 Morza Norte 04-05-2026 04:15 9,2 65 0 0 169 0 1017,2
17 Morza Norte 04-05-2026 04:00 9,3 65 0 0 169 0 1017,3
16 Morza Norte 04-05-2026 03:45 9,7 64 0 0 169 0 1017,3
15 Morza Norte 04-05-2026 03:30 9,9 63 0 0 169 0 1017,5
14 Morza Norte 04-05-2026 03:15 9,9 63 0 0 169 0 1017,7
13 Morza Norte 04-05-2026 03:00 10,2 63 0 0 169 0 1017,8
12 Morza Norte 04-05-2026 02:45 10,1 64 0 0 157 0 1018,1
11 Morza Norte 04-05-2026 02:30 9,9 65 0 0 79 0 1018,1
10 Morza Norte 04-05-2026 02:15 9,9 65 0 0 79 0 1018,3
9 Morza Norte 04-05-2026 02:00 9,7 65 0 0 79 0 1018,4
8 Morza Norte 04-05-2026 01:45 9,9 65 0 0 79 0 1018,5
7 Morza Norte 04-05-2026 01:30 9,9 66 0 0 78 0 1018,4
6 Morza Norte 04-05-2026 01:15 10,1 65 0 0 78 0 1018,5
5 Morza Norte 04-05-2026 01:00 10,2 65 0 0 78 0 1018,6
4 Morza Norte 04-05-2026 00:45 10,5 64 0 0 78 0 1018,7
3 Morza Norte 04-05-2026 00:30 10,6 63 0 0 77 0 1018,9
2 Morza Norte 04-05-2026 00:15 10,5 63 0 0 78 0 1019,2
1 Morza Norte 04-05-2026 00:00 10,2 65 0 0 68 0 1019,5